Wind_Speed
3 5 3 4 4 1 8 9 18 13 3 5 9 6 5 13 13 6 18 19 22 24 23 21 24 22 21 20 18 16 13 12 10 11 12 12 12 12 11 9 7 7 8 7 9 11 12 12 13
1 3 5 6 2 2 8 4 7 11 11 8 5 10 2 10 12 15 23 21 24 23 23 20 22 23 21 20 17 16 14 13 11 10 10 10 9 9 9 8 6 7 6 7 8 10 11 11 11
2 5 7 5 3 9 7 10 11 10 7 6 2 10 12 9 8 17 16 25 23 22 22 21 22 22 21 19 17 15 14 13 11 8 8 8 8 7 7 7 5 4 5 7 9 7 8 11 12
5 7 7 4 11 9 13 8 8 9 8 6 5 10 9 5 11 10 23 25 22 20 20 22 22 20 19 18 17 16 15 14 11 8 7 6 7 7 6 4 2 1 2 5 6 6 5 7 8
6 11 8 8 10 10 12 13 9 6 9 9 7 12 11 8 9 18 24 24 21 20 21 18 22 20 17 16 16 15 14 14 12 10 8 7 7 7 6 5 4 5 5 5 5 6 6 7 6
13 6 4 9 8 7 10 9 5 8 6 7 5 14 9 9 17 22 22 22 20 20 15 18 22 18 16 15 16 15 14 14 13 11 10 10 9 9 8 8 6 6 7 7 6 6 8 7 8
8 7 6 10 7 11 11 6 12 5 2 13 3 11 9 13 18 19 20 19 18 18 16 16 19 18 15 14 15 15 15 14 13 13 13 12 11 11 10 8 6 6 8 8 10 10 10 11 10
10 5 11 11 10 10 9 8 6 11 13 5 4 5 12 17 18 19 19 18 17 16 15 15 15 14 14 14 14 14 15 15 15 14 14 13 11 12 10 10 7 8 9 10 11 11 12 12 12
9 1 8 9 11 9 7 3 7 3 6 4 6 8 17 19 19 20 20 18 17 16 14 13 14 14 13 12 13 14 15 14 14 15 14 12 11 16 10 10 10 7 9 10 10 10 10 10 10
14 8 9 6 6 6 10 5 6 6 6 10 6 8 15 18 20 21 21 20 18 17 16 14 13 13 13 11 14 11 11 11 12 14 14 13 13 13 4 8 7 6 8 9 10 10 10 11 9
3 7 3 6 9 10 6 4 4 7 7 7 7 11 15 17 18 20 19 18 19 17 16 15 15 15 14 12 11 9 10 10 11 15 15 15 12 7 11 10 9 8 8 9 10 9 8 9 10
7 2 1 3 2 4 7 7 7 4 6 6 4 13 16 17 17 18 18 17 18 18 17 15 15 15 15 12 12 10 13 12 14 15 14 14 9 10 8 10 8 6 4 5 8 14 7 10 14
9 2 4 2 2 4 4 5 8 6 2 1 6 13 16 16 16 15 15 16 17 18 17 16 14 14 15 14 12 12 13 13 12 13 11 12 8 10 9 11 9 8 6 6 8 10 11 12 10
4 8 7 4 4 5 6 9 3 7 2 2 6 11 14 15 15 14 15 16 18 18 17 17 17 15 14 20 13 13 13 12 11 11 11 10 11 9 10 12 13 9 11 10 9 8 15 12 10
7 10 5 7 3 6 8 16 4 5 2 4 5 9 12 13 15 14 14 15 17 17 16 16 16 16 15 14 15 12 13 11 12 11 12 9 9 9 12 12 5 6 10 9 9 9 10 13 11
8 8 6 7 4 5 7 3 9 4 3 3 5 8 10 12 15 14 15 16 17 16 17 17 15 15 16 15 14 12 12 13 13 10 13 11 12 11 13 8 8 10 6 8 9 6 10 11 11
8 5 3 3 3 6 5 9 11 4 1 2 7 10 9 12 14 15 16 17 17 18 18 18 18 19 17 16 15 15 13 13 13 14 10 15 10 9 10 8 8 10 8 9 5 5 8 7 10
3 6 2 2 6 6 9 6 14 7 2 4 5 6 9 9 15 16 17 17 20 18 20 18 18 19 17 16 17 15 15 14 13 14 13 14 16 10 13 8 10 9 9 7 7 6 5 8 6
9 8 8 2 3 10 9 3 4 4 3 4 1 3 3 11 12 13 17 19 20 20 20 20 20 19 19 18 16 17 17 15 15 16 17 16 14 13 14 12 9 8 11 10 6 7 7 6 6
10 13 13 3 3 9 11 9 7 5 5 3 3 1 2 2 7 10 15 18 22 21 21 20 21 20 23 18 18 17 16 16 17 15 15 14 14 18 14 13 10 11 9 10 9 8 8 6 6
15 14 9 6 3 14 10 17 9 9 7 6 5 3 6 2 1 6 11 17 19 22 21 21 21 21 20 20 18 18 18 18 16 15 15 12 14 14 15 17 13 13 12 14 10 8 9 8 7
15 4 3 8 11 11 4 4 3 12 10 6 6 5 2 4 2 2 5 11 16 19 19 19 19 19 21 22 21 23 23 22 16 19 14 12 9 10 12 14 14 15 16 13 11 11 12 10 8
13 5 10 12 12 18 10 10 12 10 13 10 7 5 5 3 5 4 3 5 10 13 16 15 16 18 20 21 25 25 28 26 22 14 14 12 12 11 11 14 16 15 16 15 15 13 15 11 8
12 10 14 14 15 10 8 3 4 11 10 10 9 5 3 6 4 6 4 3 8 11 12 11 12 14 16 19 22 27 32 31 28 23 15 13 12 11 12 14 15 15 17 16 19 14 14 12 13
11 16 13 12 10 3 19 14 15 7 12 10 7 8 4 5 5 5 5 5 7 9 10 9 9 10 11 14 18 22 26 31 25 18 19 12 12 14 12 13 13 13 16 16 18 17 18 16 12
15 16 13 4 6 8 13 1 6 11 16 11 8 9 5 6 6 7 6 6 6 7 8 7 6 5 7 9 16 21 23 23 26 28 15 14 14 13 13 15 13 13 16 18 18 17 18 16 16
15 6 18 14 10 9 5 2 12 12 12 11 9 8 8 8 7 8 7 6 7 6 6 5 4 5 4 9 16 23 25 23 20 19 15 12 11 12 17 14 15 15 16 18 15 18 19 18 20
17 15 6 6 1 10 7 17 7 11 10 10 8 7 8 8 9 9 7 7 7 5 4 4 5 5 3 7 11 16 8 18 16 15 10 11 14 14 19 16 14 15 16 19 19 17 18 19 17
11 12 10 7 11 8 3 4 8 8 9 8 7 5 8 8 9 9 8 7 6 4 3 2 2 3 3 2 7 9 6 10 11 10 9 8 9 10 15 16 17 17 17 18 19 21 20 20 20
12 7 15 9 4 14 13 9 8 10 8 10 8 6 7 8 8 8 8 7 5 4 2 1 1 3 4 6 4 4 11 11 10 12 11 11 9 14 16 17 18 16 18 18 19 18 17 19 23
Wind_Direction
33 33 285 267 279 187 46 34 49 44 307 16 88 24 115 45 44 89 143 148 154 155 159 161 162 161 159 160 165 170 167 156 141 130 118 111 116 126 129 123 120 112 108 108 105 110 111 112 110
52 277 267 267 236 171 84 64 101 58 63 92 80 76 63 66 54 120 141 154 152 155 156 159 163 166 163 163 163 165 165 161 151 140 132 127 123 121 125 123 124 116 115 111 103 104 120 126 126
169 262 269 299 33 54 67 42 82 67 39 89 22 47 19 63 99 132 150 153 151 156 155 169 163 167 170 170 174 177 174 171 165 157 149 147 142 138 129 122 112 112 123 115 114 117 116 122 120
303 243 244 242 68 52 80 74 101 119 103 41 347 73 95 72 133 146 150 151 154 157 159 170 165 167 172 176 180 186 188 188 182 177 177 175 173 172 163 152 125 252 163 141 141 146 154 146 137
301 264 257 95 69 76 71 58 30 92 69 47 341 72 75 100 140 146 149 151 156 157 173 183 172 170 175 181 185 188 191 195 198 198 205 207 203 200 196 205 253 248 231 208 181 182 181 173 166
270 257 9 74 93 88 80 83 51 67 60 93 57 87 66 124 138 146 150 154 157 160 166 183 182 182 185 191 194 196 197 201 208 214 220 220 220 222 229 248 260 241 228 231 228 218 212 222 233
279 308 62 83 98 72 71 39 14 87 41 54 125 62 110 134 144 150 153 155 160 163 167 171 181 188 194 200 204 205 208 213 221 225 229 227 233 241 249 248 244 243 240 236 242 246 247 249 246
283 279 80 48 68 57 74 64 18 13 63 52 333 108 158 153 154 156 158 159 164 166 173 174 179 187 195 205 207 210 214 220 226 229 232 236 249 255 253 259 245 240 240 242 248 250 254 249 246
260 297 61 60 67 97 83 53 55 37 88 25 62 28 137 157 159 162 164 165 169 173 178 180 184 189 190 201 215 211 212 217 223 230 236 241 246 256 222 252 260 259 255 252 247 250 249 245 243
270 66 67 358 63 81 102 358 30 302 96 131 90 99 141 157 165 170 172 172 177 179 182 183 188 192 192 192 219 222 215 221 226 239 239 246 249 268 281 272 273 261 263 259 243 251 249 254 234
5 58 21 86 36 347 6 176 99 311 61 38 137 149 157 164 171 177 179 180 182 184 182 187 189 192 193 188 206 212 211 219 238 251 255 258 255 285 254 284 272 266 276 240 252 250 246 238 232
253 161 40 9 45 324 320 357 328 47 35 16 115 159 166 171 175 180 184 185 187 190 188 188 192 194 195 199 206 213 216 218 225 251 273 266 269 260 257 287 298 258 286 242 225 248 232 231 204
261 36 215 190 306 357 355 297 6 338 83 46 129 162 170 175 177 182 188 189 192 194 195 195 197 197 201 202 210 213 225 234 237 253 243 257 271 256 266 235 254 253 273 262 231 238 211 227 220
53 275 274 244 307 314 335 311 16 100 60 134 155 172 176 180 181 182 188 189 195 198 200 199 201 206 217 204 212 215 227 236 201 249 263 240 250 250 262 267 258 234 241 258 247 230 211 212 227
247 268 273 213 356 317 325 261 162 68 154 127 178 184 182 185 184 186 191 192 195 200 203 204 206 208 213 216 224 222 231 225 250 237 241 248 242 245 257 252 253 250 238 243 250 247 228 209 211
253 245 262 101 341 95 269 337 107 118 134 200 159 173 193 188 191 192 193 195 190 201 200 202 209 210 215 212 219 223 228 235 235 232 250 241 256 236 251 254 266 257 270 277 228 246 246 216 216
190 268 349 167 119 307 234 321 124 91 306 303 151 167 191 191 197 195 204 204 199 203 204 205 207 207 209 218 214 220 228 230 234 238 227 271 229 257 247 238 254 278 266 274 265 262 237 226 220
104 302 175 298 45 294 286 283 101 76 345 143 141 158 173 210 205 208 208 207 207 206 204 207 210 209 206 219 222 219 223 225 229 233 245 232 247 251 253 243 256 276 283 266 241 265 231 272 254
324 287 278 219 72 290 294 311 68 62 156 150 202 181 186 183 205 216 214 216 207 210 208 210 213 215 208 210 223 223 224 227 232 235 234 239 253 254 258 249 244 259 265 286 240 224 232 217 256
244 254 265 169 196 261 282 310 83 138 101 94 74 164 120 187 229 220 221 218 213 215 212 212 215 213 221 215 222 226 232 233 235 233 233 237 236 249 248 250 230 259 257 261 263 246 256 221 243
238 251 309 337 270 258 257 350 132 132 149 140 126 114 91 96 221 230 222 225 221 217 215 216 219 218 224 211 226 226 225 233 235 235 244 230 242 239 238 242 228 227 233 267 251 259 257 242 241
270 27 269 264 263 280 224 46 286 149 148 162 156 65 40 37 43 300 250 218 221 218 218 218 220 223 232 229 222 227 227 227 226 234 230 248 264 218 243 255 251 231 241 246 258 253 255 251 263
277 349 290 275 261 259 192 106 299 187 141 146 88 106 81 7 58 21 330 234 208 204 205 212 223 225 226 232 229 231 231 227 220 224 223 232 233 240 244 236 243 246 243 232 243 234 257 251 256
268 285 253 244 248 275 312 257 161 270 98 115 114 115 74 65 31 36 36 156 177 180 187 199 209 216 229 238 239 243 231 236 229 216 221 215 232 245 251 245 236 246 243 242 242 244 244 245 238
233 252 247 228 225 89 252 268 177 153 90 91 106 117 84 57 61 66 75 114 160 184 194 200 210 221 235 245 254 250 242 234 235 231 233 220 229 249 244 253 259 247 257 242 247 247 247 248 241
214 253 275 271 256 149 265 257 92 95 101 100 110 109 109 82 86 77 97 117 138 158 174 190 208 215 263 284 291 263 249 230 238 222 233 217 240 243 234 233 242 258 245 246 244 248 247 241 246
259 255 276 296 254 230 123 240 122 122 115 116 108 111 108 101 91 94 102 115 142 157 176 188 204 215 274 302 294 289 252 227 218 206 214 216 236 247 262 252 250 244 242 255 242 244 248 237 237
271 318 224 275 99 280 31 293 92 131 141 128 129 120 117 116 110 104 104 111 127 143 160 180 198 217 254 318 357 359 274 176 205 203 226 214 225 241 246 244 246 258 253 249 240 247 252 245 232
202 238 236 184 256 262 157 169 230 102 128 139 116 145 128 121 114 112 109 112 125 138 146 171 232 237 240 292 30 43 78 183 204 199 239 230 255 265 257 245 245 250 246 249 242 234 233 244 247
305 88 256 273 64 336 301 102 75 99 105 131 137 128 104 112 115 113 113 118 121 134 151 221 270 254 243 233 259 102 125 127 180 230 250 260 263 270 264 256 253 248 249 246 246 239 241 246 246
Height
1510 1510 1514 1514 1514 1491 1508 1501 1498 1500 1506 1499 1501 1502 1505 1504 1508 1525 1525 1531 1535 1539 1540 1544 1547 1550 1553 1555 1558 1561 1563 1565 1567 1568 1569 1570 1572 1573 1574 1576 1577 1578 1578 1579 1580 1580 1580 1583 1582
1517 1515 1514 1508 1519 1519 1508 1494 1501 1498 1499 1501 1503 1506 1510 1510 1517 1521 1527 1532 1537 1540 1542 1545 1548 1551 1554 1557 1560 1563 1565 1567 1569 1570 1571 1572 1574 1575 1576 1578 1579 1580 1580 1581 1582 1582 1583 1584 1584
1514 1514 1508 1496 1496 1511 1512 1495 1497 1502 1502 1505 1505 1505 1509 1516 1522 1525 1529 1534 1539 1542 1545 1545 1549 1553 1556 1558 1561 1564 1566 1568 1570 1571 1573 1574 1575 1576 1577 1579 1580 1581 1581 1582 1584 1584 1585 1585 1586
1517 1514 1508 1503 1506 1496 1496 1499 1498 1501 1502 1507 1505 1507 1517 1522 1524 1527 1530 1535 1540 1545 1548 1547 1550 1554 1557 1560 1562 1565 1567 1569 1571 1572 1573 1574 1576 1577 1578 1579 1580 1581 1582 1583 1584 1586 1586 1588 1586
1516 1508 1497 1497 1500 1496 1496 1498 1498 1498 1503 1504 1506 1511 1519 1524 1526 1528 1532 1537 1541 1546 1546 1548 1552 1555 1558 1561 1563 1565 1567 1569 1571 1572 1573 1573 1574 1576 1577 1578 1580 1581 1582 1583 1584 1586 1586 1586 1587
1512 1501 1496 1504 1504 1499 1498 1501 1500 1502 1507 1508 1511 1512 1524 1527 1528 1531 1535 1539 1543 1546 1548 1548 1552 1556 1559 1561 1563 1565 1567 1569 1570 1571 1571 1572 1573 1574 1576 1577 1578 1579 1581 1582 1584 1585 1586 1587 1587
1508 1494 1500 1500 1503 1503 1501 1503 1501 1504 1506 1507 1511 1513 1526 1529 1531 1534 1537 1541 1544 1548 1550 1552 1553 1556 1559 1561 1563 1565 1567 1569 1569 1570 1570 1572 1574 1575 1575 1575 1576 1578 1580 1582 1583 1584 1585 1586 1586
1508 1498 1502 1502 1507 1511 1505 1505 1508 1505 1511 1514 1512 1515 1524 1528 1532 1536 1539 1542 1546 1550 1552 1554 1556 1557 1559 1561 1563 1565 1566 1568 1568 1568 1569 1572 1577 1576 1576 1577 1576 1577 1578 1579 1581 1582 1582 1584 1584
1508 1500 1511 1507 1506 1508 1508 1504 1511 1513 1510 1514 1516 1515 1521 1527 1531 1535 1538 1542 1546 1550 1552 1555 1557 1559 1562 1565 1563 1564 1566 1567 1567 1567 1568 1573 1574 1573 1561 1578 1577 1575 1576 1577 1578 1580 1580 1581 1582
1502 1499 1510 1505 1502 1504 1505 1506 1509 1505 1509 1512 1518 1521 1524 1527 1531 1534 1537 1540 1545 1549 1552 1554 1557 1560 1562 1566 1565 1565 1567 1568 1568 1566 1567 1570 1573 1551 1571 1575 1575 1573 1574 1575 1577 1578 1579 1579 1582
1506 1505 1505 1506 1509 1507 1504 1503 1508 1504 1501 1509 1511 1521 1525 1528 1531 1534 1537 1540 1544 1548 1550 1554 1557 1559 1561 1564 1566 1566 1568 1569 1569 1566 1566 1567 1571 1573 1574 1573 1571 1571 1572 1574 1576 1577 1578 1580 1581
1506 1506 1506 1506 1508 1509 1507 1505 1502 1505 1508 1511 1512 1518 1524 1527 1530 1533 1537 1540 1544 1548 1551 1553 1555 1558 1560 1563 1564 1566 1567 1568 1568 1568 1566 1566 1568 1570 1571 1570 1570 1571 1571 1572 1575 1574 1576 1578 1577
1506 1502 1503 1504 1504 1505 1506 1505 1504 1504 1507 1511 1512 1518 1522 1526 1529 1532 1536 1539 1544 1547 1550 1553 1555 1557 1559 1561 1563 1565 1565 1565 1567 1567 1567 1568 1567 1568 1568 1570 1570 1571 1570 1571 1573 1574 1575 1577 1578
1505 1504 1501 1501 1501 1501 1503 1503 1505 1504 1509 1511 1513 1517 1521 1525 1528 1531 1534 1538 1542 1546 1548 1551 1554 1556 1557 1558 1560 1563 1563 1565 1561 1566 1567 1568 1567 1570 1569 1569 1570 1570 1569 1570 1569 1571 1572 1575 1576
1506 1503 1497 1496 1500 1501 1503 1498 1500 1506 1508 1510 1512 1516 1518 1523 1526 1530 1534 1537 1541 1544 1547 1550 1552 1554 1556 1558 1559 1561 1563 1563 1564 1566 1567 1567 1566 1570 1569 1567 1569 1569 1569 1568 1567 1568 1569 1571 1574
1503 1500 1502 1495 1500 1501 1502 1502 1502 1505 1506 1506 1511 1515 1518 1521 1524 1528 1532 1535 1538 1542 1545 1548 1550 1552 1554 1556 1558 1560 1562 1562 1563 1565 1566 1567 1566 1566 1566 1568 1566 1565 1567 1565 1566 1567 1567 1569 1571
1499 1504 1506 1499 1499 1499 1498 1500 1497 1503 1504 1504 1509 1512 1516 1519 1522 1526 1528 1532 1535 1538 1542 1545 1547 1549 1552 1553 1555 1557 1559 1560 1561 1562 1564 1563 1564 1565 1565 1565 1568 1565 1566 1565 1565 1565 1566 1566 1567
1501 1501 1500 1503 1495 1497 1494 1491 1492 1501 1503 1503 1505 1509 1514 1518 1519 1523 1526 1528 1533 1535 1539 1542 1544 1545 1549 1552 1552 1554 1556 1558 1559 1559 1560 1562 1561 1565 1564 1566 1566 1565 1564 1564 1566 1565 1565 1565 1566
1501 1503 1502 1494 1496 1498 1492 1493 1489 1501 1502 1504 1504 1506 1507 1511 1517 1519 1523 1525 1530 1532 1535 1538 1540 1541 1544 1546 1550 1551 1552 1554 1556 1557 1558 1558 1560 1563 1562 1562 1565 1564 1564 1564 1563 1564 1564 1565 1565
1500 1502 1495 1490 1493 1495 1490 1492 1488 1497 1501 1504 1506 1507 1508 1512 1515 1517 1519 1521 1524 1529 1531 1534 1537 1539 1539 1544 1547 1549 1551 1552 1552 1554 1555 1556 1558 1558 1558 1559 1562 1563 1563 1562 1562 1561 1562 1562 1564
1497 1495 1491 1496 1489 1486 1488 1511 1493 1498 1501 1504 1506 1508 1509 1512 1514 1515 1516 1518 1520 1524 1528 1531 1534 1535 1536 1539 1543 1545 1546 1547 1549 1549 1550 1552 1554 1554 1556 1555 1557 1560 1561 1561 1560 1561 1560 1560 1561
1497 1481 1491 1494 1498 1500 1480 1534 1497 1493 1495 1500 1502 1506 1509 1511 1512 1513 1513 1514 1517 1520 1525 1529 1531 1532 1534 1535 1537 1539 1540 1542 1544 1544 1548 1549 1550 1547 1553 1552 1553 1555 1556 1558 1558 1559 1557 1558 1559
1493 1490 1490 1489 1492 1483 1480 1529 1552 1491 1494 1495 1501 1505 1507 1511 1511 1513 1512 1512 1515 1518 1522 1525 1528 1529 1530 1531 1531 1532 1532 1534 1537 1540 1542 1545 1547 1548 1549 1550 1550 1550 1551 1554 1556 1556 1555 1557 1557
1491 1493 1488 1486 1484 1500 1490 1487 1551 1511 1491 1494 1500 1507 1508 1510 1511 1513 1513 1513 1515 1518 1521 1523 1524 1525 1527 1527 1526 1526 1525 1526 1530 1533 1537 1539 1543 1544 1545 1545 1546 1546 1546 1549 1550 1551 1551 1552 1553
1491 1493 1502 1504 1500 1528 1489 1487 1535 1491 1488 1494 1499 1506 1509 1510 1512 1513 1514 1515 1517 1519 1521 1522 1523 1523 1524 1523 1521 1519 1519 1520 1516 1531 1533 1536 1537 1539 1541 1542 1542 1543 1543 1544 1545 1545 1546 1547 1550
1484 1481 1492 1517 1510 1511 1478 1490 1492 1483 1490 1498 1502 1505 1508 1510 1512 1513 1515 1516 1517 1518 1520 1521 1521 1521 1520 1518 1516 1514 1514 1516 1519 1523 1530 1531 1533 1536 1537 1538 1539 1539 1539 1539 1540 1540 1540 1541 1545
1479 1490 1468 1477 1465 1481 1490 1479 1480 1481 1490 1496 1502 1504 1508 1511 1512 1514 1515 1517 1518 1519 1520 1520 1520 1519 1518 1518 1514 1508 1506 1508 1514 1519 1524 1527 1529 1533 1532 1533 1533 1533 1535 1534 1535 1535 1535 1538 1539
1477 1470 1485 1475 1521 1513 1521 1504 1489 1489 1490 1496 1500 1503 1507 1510 1512 1515 1517 1518 1519 1520 1520 1520 1520 1519 1518 1515 1512 1506 1498 1500 1513 1517 1521 1525 1526 1527 1527 1527 1528 1528 1529 1530 1532 1533 1532 1534 1536
1481 1481 1474 1481 1485 1498 1503 1510 1487 1483 1486 1493 1501 1503 1506 1509 1512 1515 1518 1519 1520 1520 1520 1520 1520 1519 1518 1515 1513 1510 1505 1508 1510 1517 1520 1521 1523 1522 1522 1522 1522 1523 1525 1525 1526 1527 1528 1529 1531
1467 1475 1481 1480 1506 1495 1483 1498 1478 1484 1489 1495 1500 1504 1507 1510 1514 1516 1518 1520 1521 1521 1520 1520 1520 1520 1519 1517 1515 1514 1513 1513 1517 1519 1519 1519 1519 1521 1520 1519 1519 1519 1520 1521 1521 1522 1523 1524 1526